SVA1037 OERK-OEJN

Flight info

Callsign SVA1037
Flight time 1h 17m
Altitude 38000
Route DURMA G782 VEMEM
Aircraft B77W/H-SDE1E2E3FGHIJ2J3J4J5M1RWXY/LB1D1

Departure

Time 2026-04-29 01:15
Airport King Khalid International Airport (OERK)

Arrival

Time 2026-04-29 02:32
Airport King Abdulaziz International Airport (OEJN)
Time Latitude Longitude Altitude Speed Heading
2026-04-29 01:01 24.94484 46.71214 2037 ft 0 kts 239°
2026-04-29 01:06 24.94487 46.71219 2046 ft 3 kts 239°
2026-04-29 01:07 24.94498 46.71238 2046 ft 3 kts 239°
2026-04-29 01:07 24.94507 46.71255 2037 ft 3 kts 234°
2026-04-29 01:07 24.94520 46.71270 2046 ft 3 kts 205°
2026-04-29 01:07 24.94538 46.71275 2043 ft 3 kts 172°
2026-04-29 01:08 24.94557 46.71269 2046 ft 3 kts 151°
2026-04-29 01:08 24.94574 46.71259 2046 ft 3 kts 148°
2026-04-29 01:08 24.94591 46.71247 2046 ft 3 kts 148°
2026-04-29 01:08 24.94608 46.71236 2046 ft 3 kts 148°
2026-04-29 01:09 24.94613 46.71233 2042 ft 0 kts 148°
2026-04-29 01:10 24.94609 46.71235 2046 ft 3 kts 148°
2026-04-29 01:10 24.94558 46.71269 2046 ft 11 kts 150°
2026-04-29 01:10 24.94489 46.71312 2044 ft 11 kts 150°
2026-04-29 01:11 24.94421 46.71356 2044 ft 11 kts 150°
2026-04-29 01:11 24.94342 46.71406 2045 ft 20 kts 150°
2026-04-29 01:11 24.94218 46.71493 2041 ft 16 kts 128°
2026-04-29 01:11 24.94235 46.71591 2044 ft 13 kts 59°
2026-04-29 01:12 24.94269 46.71653 2046 ft 9 kts 59°
2026-04-29 01:12 24.94298 46.71709 2045 ft 8 kts 59°
2026-04-29 01:12 24.94327 46.71765 2042 ft 8 kts 60°
2026-04-29 01:12 24.94358 46.71823 2041 ft 9 kts 60°
2026-04-29 01:13 24.94388 46.71881 2044 ft 10 kts 60°
2026-04-29 01:13 24.94436 46.71973 2044 ft 18 kts 60°
2026-04-29 01:13 24.94502 46.72097 2043 ft 19 kts 59°
2026-04-29 01:13 24.94583 46.72160 2041 ft 15 kts 344°
2026-04-29 01:14 24.94683 46.72100 2045 ft 24 kts 329°
2026-04-29 01:14 24.95023 46.71883 2045 ft 95 kts 330°
2026-04-29 01:14 24.95795 46.71396 2043 ft 161 kts 330°
2026-04-29 01:14 24.96887 46.70713 2335 ft 187 kts 331°
2026-04-29 01:15 24.98043 46.69994 3021 ft 193 kts 334°
2026-04-29 01:15 24.99189 46.69260 3813 ft 192 kts 334°
2026-04-29 01:15 25.00364 46.68510 4403 ft 201 kts 333°
2026-04-29 01:15 25.01405 46.67346 4589 ft 235 kts 297°
2026-04-29 01:16 25.01598 46.65460 4798 ft 268 kts 257°
2026-04-29 01:16 25.00769 46.63550 5166 ft 284 kts 233°
2026-04-29 01:16 24.99607 46.61777 6094 ft 285 kts 232°
2026-04-29 01:16 24.98454 46.60035 7351 ft 277 kts 232°
2026-04-29 01:17 24.97329 46.58330 8552 ft 274 kts 233°
2026-04-29 01:17 24.96216 46.56631 9689 ft 274 kts 233°
2026-04-29 01:17 24.95090 46.54898 10596 ft 281 kts 233°
2026-04-29 01:17 24.93925 46.53094 11022 ft 308 kts 234°
2026-04-29 01:18 24.92625 46.51071 11253 ft 338 kts 234°
2026-04-29 01:18 24.89766 46.46590 12548 ft 367 kts 234°
2026-04-29 01:18 24.88296 46.44276 13559 ft 370 kts 234°
2026-04-29 01:19 24.86816 46.41943 14481 ft 373 kts 235°
2026-04-29 01:19 24.85327 46.39596 15432 ft 375 kts 235°
2026-04-29 01:19 24.83832 46.37240 16441 ft 376 kts 235°
2026-04-29 01:19 24.82332 46.34877 17457 ft 377 kts 235°
2026-04-29 01:20 24.80825 46.32504 18384 ft 379 kts 235°
2026-04-29 01:20 24.79306 46.30114 19164 ft 383 kts 235°
2026-04-29 01:20 24.77769 46.27696 19972 ft 386 kts 235°
2026-04-29 01:20 24.76224 46.25267 20770 ft 389 kts 235°
2026-04-29 01:21 24.74662 46.22813 21521 ft 393 kts 234°
2026-04-29 01:21 24.73091 46.20344 22298 ft 395 kts 234°
2026-04-29 01:21 24.71507 46.17859 23035 ft 399 kts 234°
2026-04-29 01:21 24.69907 46.15349 23675 ft 403 kts 235°
2026-04-29 01:22 24.68289 46.12812 24220 ft 407 kts 235°
2026-04-29 01:22 24.66657 46.10256 24764 ft 410 kts 235°
2026-04-29 01:22 24.65012 46.07678 25285 ft 413 kts 236°
2026-04-29 01:22 24.63355 46.05082 25805 ft 417 kts 236°
2026-04-29 01:23 24.61703 46.02497 26296 ft 420 kts 236°
2026-04-29 01:23 24.60016 45.99858 26763 ft 424 kts 236°
2026-04-29 01:23 24.58314 45.97197 27250 ft 427 kts 236°
2026-04-29 01:23 24.56597 45.94515 27687 ft 431 kts 237°
2026-04-29 01:24 24.54866 45.91811 28094 ft 434 kts 237°
2026-04-29 01:24 24.53125 45.89095 28496 ft 437 kts 237°
2026-04-29 01:24 24.51372 45.86360 28873 ft 439 kts 237°
2026-04-29 01:24 24.49604 45.83604 29225 ft 442 kts 237°
2026-04-29 01:25 24.47827 45.80835 29563 ft 445 kts 237°
2026-04-29 01:25 24.46062 45.78037 29866 ft 447 kts 239°
2026-04-29 01:25 24.44482 45.75148 30150 ft 446 kts 244°
2026-04-29 01:25 24.43121 45.72099 30522 ft 444 kts 246°
2026-04-29 01:26 24.41793 45.69056 30951 ft 442 kts 246°
2026-04-29 01:26 24.40455 45.66025 31388 ft 440 kts 246°
2026-04-29 01:26 24.39118 45.63013 31797 ft 438 kts 246°
2026-04-29 01:26 24.37782 45.60016 32191 ft 437 kts 246°
2026-04-29 01:27 24.36448 45.57026 32583 ft 436 kts 246°
2026-04-29 01:27 24.35114 45.54040 32975 ft 436 kts 246°
2026-04-29 01:27 24.33784 45.51063 33386 ft 434 kts 246°
2026-04-29 01:27 24.32456 45.48092 33814 ft 433 kts 246°
2026-04-29 01:28 24.31134 45.45135 34174 ft 432 kts 246°
2026-04-29 01:28 24.29811 45.42177 34463 ft 432 kts 246°
2026-04-29 01:28 24.28486 45.39217 34751 ft 433 kts 246°
2026-04-29 01:28 24.27160 45.36257 35055 ft 432 kts 246°
2026-04-29 01:29 24.25833 45.33298 35348 ft 432 kts 245°
2026-04-29 01:29 24.24508 45.30343 35658 ft 432 kts 245°
2026-04-29 01:29 24.23183 45.27390 35943 ft 432 kts 245°
2026-04-29 01:29 24.21858 45.24440 36232 ft 431 kts 245°
2026-04-29 01:30 24.20551 45.21530 36544 ft 431 kts 245°
2026-04-29 01:30 24.19226 45.18583 36712 ft 433 kts 245°
2026-04-29 01:30 24.16544 45.12621 37090 ft 436 kts 245°
2026-04-29 01:31 24.15205 45.09649 37462 ft 434 kts 245°
2026-04-29 01:31 24.13872 45.06686 37783 ft 433 kts 245°
2026-04-29 01:31 24.11186 45.00715 37883 ft 439 kts 245°
2026-04-29 01:32 24.08487 44.94724 37889 ft 436 kts 245°
2026-04-29 01:32 24.05830 44.88833 37891 ft 431 kts 245°
2026-04-29 01:33 24.03156 44.82910 37906 ft 438 kts 245°
2026-04-29 01:33 24.00447 44.76917 37905 ft 445 kts 245°
2026-04-29 01:34 23.97692 44.70831 37887 ft 448 kts 244°
2026-04-29 01:34 23.94922 44.64719 37900 ft 450 kts 244°
2026-04-29 01:35 23.92475 44.58420 37909 ft 450 kts 251°
2026-04-29 01:35 23.90889 44.51807 37907 ft 449 kts 256°
2026-04-29 01:36 23.89503 44.45161 37894 ft 448 kts 256°
2026-04-29 01:36 23.88106 44.38549 37893 ft 446 kts 256°
2026-04-29 01:37 23.86696 44.31955 37894 ft 445 kts 256°
2026-04-29 01:37 23.85285 44.25382 37895 ft 444 kts 256°
2026-04-29 01:38 23.83872 44.18817 37898 ft 444 kts 256°
2026-04-29 01:38 23.82467 44.12298 37898 ft 444 kts 256°
2026-04-29 01:39 23.81045 44.05719 37897 ft 444 kts 256°
2026-04-29 01:39 23.79624 43.99151 37884 ft 445 kts 256°
2026-04-29 01:40 23.78196 43.92565 37896 ft 446 kts 256°
2026-04-29 01:40 23.76759 43.85967 37900 ft 447 kts 255°
2026-04-29 01:41 23.75307 43.79358 37907 ft 448 kts 255°
2026-04-29 01:41 23.73852 43.72747 37907 ft 448 kts 255°
2026-04-29 01:42 23.72395 43.66132 37906 ft 448 kts 255°
2026-04-29 01:42 23.70945 43.59560 37900 ft 448 kts 255°
2026-04-29 01:43 23.69484 43.52953 37902 ft 448 kts 255°
2026-04-29 01:43 23.68020 43.46351 37916 ft 448 kts 255°
2026-04-29 01:44 23.66554 43.39751 37918 ft 448 kts 255°
2026-04-29 01:44 23.65084 43.33147 37916 ft 448 kts 255°
2026-04-29 01:45 23.63609 43.26535 37918 ft 448 kts 255°
2026-04-29 01:45 23.62143 43.19975 37926 ft 448 kts 255°
2026-04-29 01:46 23.60662 43.13364 37920 ft 448 kts 255°
2026-04-29 01:46 23.59181 43.06766 37926 ft 448 kts 255°
2026-04-29 01:47 23.57946 43.01274 37942 ft 449 kts 255°
2026-04-29 01:47 23.56205 42.93548 37926 ft 449 kts 255°
2026-04-29 01:48 23.54963 42.88049 37924 ft 449 kts 255°
2026-04-29 01:48 23.53469 42.81442 37925 ft 449 kts 255°
2026-04-29 01:49 23.51972 42.74838 37923 ft 449 kts 255°
2026-04-29 01:49 23.50473 42.68233 37923 ft 449 kts 255°
2026-04-29 01:50 23.48976 42.61640 37928 ft 449 kts 255°
2026-04-29 01:50 23.47474 42.55038 37929 ft 448 kts 255°
2026-04-29 01:51 23.45983 42.48495 37919 ft 448 kts 255°
2026-04-29 01:51 23.44481 42.41918 37923 ft 447 kts 255°
2026-04-29 01:52 23.42980 42.35357 37905 ft 446 kts 255°
2026-04-29 01:52 23.41571 42.28853 37915 ft 442 kts 255°
2026-04-29 01:53 23.40028 42.22319 37931 ft 449 kts 255°
2026-04-29 01:53 23.38471 42.15715 37935 ft 452 kts 255°
2026-04-29 01:54 23.36929 42.09065 37924 ft 453 kts 255°
2026-04-29 01:54 23.35392 42.02415 37915 ft 452 kts 255°
2026-04-29 01:55 23.33863 41.95805 37923 ft 449 kts 255°
2026-04-29 01:55 23.32338 41.89237 37913 ft 446 kts 255°
2026-04-29 01:56 23.30821 41.82710 37919 ft 444 kts 255°
2026-04-29 01:56 23.29265 41.76207 37932 ft 443 kts 251°
2026-04-29 01:57 23.26930 41.70029 37927 ft 442 kts 244°
2026-04-29 01:57 23.23856 41.64236 37925 ft 443 kts 238°
2026-04-29 01:58 23.20498 41.58617 37910 ft 443 kts 238°
2026-04-29 01:58 23.17158 41.53032 37930 ft 444 kts 238°
2026-04-29 01:59 23.13810 41.47396 37926 ft 444 kts 238°
2026-04-29 01:59 23.10458 41.41739 37922 ft 444 kts 238°
2026-04-29 02:00 23.07113 41.36097 37927 ft 444 kts 238°
2026-04-29 02:00 23.03764 41.30456 37922 ft 444 kts 238°
2026-04-29 02:01 23.00415 41.24823 37924 ft 444 kts 238°
2026-04-29 02:01 22.97071 41.19202 37926 ft 443 kts 238°
2026-04-29 02:02 22.93738 41.13607 37927 ft 443 kts 238°
2026-04-29 02:02 22.90390 41.07991 37928 ft 443 kts 238°
2026-04-29 02:03 22.87041 41.02380 37915 ft 443 kts 238°
2026-04-29 02:03 22.83683 40.96767 37924 ft 444 kts 238°
2026-04-29 02:04 22.80316 40.91157 37931 ft 444 kts 238°
2026-04-29 02:04 22.76942 40.85540 37933 ft 445 kts 238°
2026-04-29 02:05 22.73562 40.79917 37925 ft 445 kts 238°
2026-04-29 02:05 22.70200 40.74327 37921 ft 446 kts 238°
2026-04-29 02:06 22.66848 40.68761 37900 ft 432 kts 238°
2026-04-29 02:06 22.65227 40.66073 37716 ft 422 kts 238°
2026-04-29 02:06 22.63626 40.63419 37132 ft 420 kts 238°
2026-04-29 02:07 22.62032 40.60775 36486 ft 419 kts 238°
2026-04-29 02:07 22.60431 40.58122 35753 ft 421 kts 239°
2026-04-29 02:07 22.58822 40.55455 34909 ft 425 kts 239°
2026-04-29 02:07 22.57197 40.52763 34039 ft 430 kts 239°
2026-04-29 02:08 22.55550 40.50037 33002 ft 435 kts 239°
2026-04-29 02:08 22.53898 40.47307 32906 ft 432 kts 239°
2026-04-29 02:08 22.50544 40.41766 32846 ft 447 kts 239°
2026-04-29 02:09 22.47106 40.36091 32013 ft 460 kts 239°
2026-04-29 02:09 22.45341 40.33178 31011 ft 462 kts 239°
2026-04-29 02:09 22.43585 40.30286 30225 ft 458 kts 239°
2026-04-29 02:10 22.41867 40.27459 29391 ft 454 kts 239°
2026-04-29 02:10 22.40146 40.24626 28628 ft 448 kts 239°
2026-04-29 02:10 22.38444 40.21827 27887 ft 442 kts 239°
2026-04-29 02:10 22.36767 40.19068 27208 ft 437 kts 239°
2026-04-29 02:11 22.35107 40.16337 26543 ft 432 kts 238°
2026-04-29 02:11 22.33464 40.13635 25900 ft 429 kts 238°
2026-04-29 02:11 22.31832 40.10953 25224 ft 425 kts 238°
2026-04-29 02:11 22.30211 40.08289 24565 ft 422 kts 238°
2026-04-29 02:12 22.28601 40.05647 23916 ft 420 kts 238°
2026-04-29 02:12 22.27016 40.03049 23671 ft 408 kts 238°
2026-04-29 02:12 22.25479 40.00531 23447 ft 395 kts 238°
2026-04-29 02:12 22.23990 39.98093 23268 ft 383 kts 238°
2026-04-29 02:13 22.22548 39.95729 23051 ft 372 kts 238°
2026-04-29 02:13 22.21147 39.93433 22912 ft 360 kts 238°
2026-04-29 02:13 22.19790 39.91210 22749 ft 349 kts 238°
2026-04-29 02:13 22.18470 39.89050 22610 ft 339 kts 238°
2026-04-29 02:14 22.17190 39.86956 22428 ft 331 kts 238°
2026-04-29 02:14 22.15925 39.84888 22005 ft 330 kts 238°
2026-04-29 02:14 22.14680 39.82855 21610 ft 328 kts 238°
2026-04-29 02:14 22.13427 39.80807 21226 ft 327 kts 237°
2026-04-29 02:15 22.12176 39.78763 20821 ft 326 kts 237°
2026-04-29 02:15 22.10930 39.76729 20412 ft 325 kts 237°
2026-04-29 02:15 22.09683 39.74693 20006 ft 325 kts 237°
2026-04-29 02:15 22.08438 39.72661 19594 ft 324 kts 237°
2026-04-29 02:16 22.07196 39.70636 19245 ft 323 kts 237°
2026-04-29 02:16 22.05957 39.68616 18885 ft 321 kts 237°
2026-04-29 02:16 22.04721 39.66603 18479 ft 321 kts 236°
2026-04-29 02:16 22.03501 39.64615 18294 ft 314 kts 236°
2026-04-29 02:17 22.02296 39.62652 17692 ft 318 kts 236°
2026-04-29 02:17 22.01068 39.60652 17184 ft 319 kts 236°
2026-04-29 02:17 21.99855 39.58678 16976 ft 311 kts 236°
2026-04-29 02:17 21.98669 39.56747 16550 ft 310 kts 236°
2026-04-29 02:18 21.97468 39.54793 16010 ft 314 kts 236°
2026-04-29 02:18 21.96272 39.52849 15779 ft 307 kts 236°
2026-04-29 02:18 21.95105 39.50953 15440 ft 304 kts 236°
2026-04-29 02:18 21.93950 39.49012 14886 ft 309 kts 240°
2026-04-29 02:19 21.92986 39.46984 14586 ft 298 kts 243°
2026-04-29 02:19 21.92100 39.44929 14023 ft 306 kts 244°
2026-04-29 02:19 21.91207 39.42839 13682 ft 309 kts 244°
2026-04-29 02:19 21.90299 39.40732 13410 ft 309 kts 244°
2026-04-29 02:20 21.89382 39.38635 13000 ft 309 kts 243°
2026-04-29 02:20 21.88472 39.36573 12625 ft 307 kts 243°
2026-04-29 02:20 21.87555 39.34506 12270 ft 305 kts 244°
2026-04-29 02:20 21.86648 39.32469 11804 ft 293 kts 244°
2026-04-29 02:21 21.85789 39.30541 11287 ft 279 kts 244°
2026-04-29 02:21 21.84961 39.28687 10804 ft 272 kts 244°
2026-04-29 02:21 21.84140 39.26851 10332 ft 273 kts 244°
2026-04-29 02:21 21.83250 39.25025 9890 ft 276 kts 234°
2026-04-29 02:22 21.81812 39.23669 9395 ft 275 kts 209°
2026-04-29 02:22 21.80014 39.23100 8855 ft 267 kts 189°
2026-04-29 02:22 21.78165 39.23170 8347 ft 270 kts 171°
2026-04-29 02:22 21.76353 39.23788 7886 ft 276 kts 163°
2026-04-29 02:23 21.74540 39.24536 7425 ft 281 kts 162°
2026-04-29 02:23 21.72723 39.25282 6930 ft 275 kts 162°
2026-04-29 02:23 21.70974 39.26002 6450 ft 263 kts 162°
2026-04-29 02:23 21.69307 39.26675 5946 ft 254 kts 162°
2026-04-29 02:24 21.67675 39.27326 5494 ft 247 kts 162°
2026-04-29 02:24 21.66072 39.27962 5263 ft 243 kts 162°
2026-04-29 02:24 21.64494 39.28586 5019 ft 240 kts 161°
2026-04-29 02:25 21.61395 39.29807 4502 ft 234 kts 162°
2026-04-29 02:25 21.59879 39.30400 4358 ft 232 kts 161°
2026-04-29 02:25 21.58341 39.31000 4107 ft 238 kts 161°
2026-04-29 02:25 21.56779 39.31612 3861 ft 238 kts 161°
2026-04-29 02:26 21.55204 39.31996 3594 ft 229 kts 185°
2026-04-29 02:26 21.53754 39.31461 3302 ft 215 kts 222°
2026-04-29 02:26 21.52781 39.30322 3074 ft 201 kts 245°
2026-04-29 02:26 21.52214 39.28988 2818 ft 195 kts 257°
2026-04-29 02:27 21.51744 39.27621 2528 ft 195 kts 258°
2026-04-29 02:27 21.51396 39.26227 2177 ft 189 kts 278°
2026-04-29 02:27 21.51807 39.25053 2143 ft 164 kts 320°
2026-04-29 02:27 21.52680 39.24325 2146 ft 159 kts 327°
2026-04-29 02:28 21.53587 39.23628 2142 ft 161 kts 333°
2026-04-29 02:28 21.54557 39.23071 2130 ft 157 kts 336°
2026-04-29 02:28 21.55522 39.22544 2121 ft 150 kts 338°
2026-04-29 02:28 21.56426 39.22119 2113 ft 134 kts 341°
2026-04-29 02:29 21.57280 39.21763 1965 ft 131 kts 342°
2026-04-29 02:29 21.58144 39.21416 1778 ft 133 kts 342°
2026-04-29 02:29 21.59007 39.21072 1611 ft 132 kts 342°
2026-04-29 02:29 21.59869 39.20731 1420 ft 134 kts 342°
2026-04-29 02:30 21.60747 39.20384 1256 ft 137 kts 342°
2026-04-29 02:30 21.61646 39.20029 1076 ft 134 kts 341°
2026-04-29 02:30 21.62525 39.19680 905 ft 137 kts 341°
2026-04-29 02:30 21.63449 39.19316 726 ft 142 kts 341°
2026-04-29 02:31 21.64363 39.18955 557 ft 140 kts 339°
2026-04-29 02:31 21.65261 39.18600 386 ft 141 kts 341°
2026-04-29 02:31 21.66201 39.18230 215 ft 146 kts 339°
2026-04-29 02:31 21.67094 39.17875 41 ft 126 kts 340°
2026-04-29 02:32 21.67823 39.17587 39 ft 90 kts 340°
2026-04-29 02:32 21.68206 39.17428 33 ft 35 kts 327°
2026-04-29 02:32 21.68375 39.17257 30 ft 21 kts 310°
2026-04-29 02:32 21.68432 39.17185 31 ft 8 kts 306°
2026-04-29 02:33 21.68426 39.17133 32 ft 8 kts 209°
2026-04-29 02:33 21.68369 39.17138 32 ft 9 kts 166°
2026-04-29 02:33 21.68300 39.17162 32 ft 14 kts 160°
2026-04-29 02:33 21.68201 39.17200 34 ft 15 kts 160°
2026-04-29 02:34 21.68132 39.17227 36 ft 15 kts 160°
2026-04-29 02:34 21.68033 39.17267 36 ft 15 kts 159°
2026-04-29 02:34 21.67932 39.17307 36 ft 15 kts 159°
2026-04-29 02:34 21.67831 39.17347 36 ft 15 kts 160°
2026-04-29 02:35 21.67730 39.17386 37 ft 16 kts 160°
2026-04-29 02:35 21.67561 39.17452 36 ft 29 kts 160°
2026-04-29 02:35 21.67374 39.17527 36 ft 29 kts 160°
2026-04-29 02:35 21.67227 39.17524 35 ft 21 kts 242°
2026-04-29 02:36 21.67183 39.17405 35 ft 8 kts 245°
2026-04-29 02:36 21.67169 39.17347 35 ft 9 kts 281°
2026-04-29 02:36 21.67200 39.17301 35 ft 5 kts 311°
2026-04-29 02:36 21.67205 39.17294 35 ft 0 kts 310°